This is the latest recevied weather packets stored in our database for station/object K5YNC. If no packets are shown the sender has not sent any weather packets the latest 1 day(s).
| Time | Temp. | Humidity | Pressure | Rain* | Wind** | Luminosity | Snow |
|---|---|---|---|---|---|---|---|
| 1778051246 | 11.11° C | 77% | 1013 hPa | 0 mm | 1.34 m/s, 0° | 0 W/m² | - |
| 1778050944 | 11.67° C | 78% | 1013.2 hPa | 0 mm | 0.89 m/s, 351° | 0 W/m² | - |
| 1778050641 | 11.67° C | 78% | 1013.4 hPa | 0 mm | 0.45 m/s, 308° | 0 W/m² | - |
| 1778050338 | 11.67° C | 78% | 1012.8 hPa | 0 mm | 0.89 m/s, 345° | 0 W/m² | - |
| 1778050035 | 11.67° C | 79% | 1012.9 hPa | 0 mm | 0.45 m/s, 334° | 0 W/m² | - |
| 1778049730 | 11.67° C | 79% | 1012.7 hPa | 0 mm | 0.89 m/s, 8° | 0 W/m² | - |
| 1778049429 | 11.11° C | 79% | 1012.7 hPa | 0 mm | 0.89 m/s, 329° | 0 W/m² | - |
| 1778049125 | 11.11° C | 79% | 1012.3 hPa | 0 mm | 0.45 m/s, 39° | 0 W/m² | - |
| 1778048824 | 11.67° C | 78% | 1012.3 hPa | 0 mm | 0.89 m/s, 268° | 0 W/m² | - |
| 1778048520 | 11.67° C | 78% | 1012.5 hPa | 0 mm | 1.34 m/s, 14° | 0 W/m² | - |
| 1778048216 | 11.67° C | 78% | 1012.7 hPa | 0 mm | 0.45 m/s, 327° | 0 W/m² | - |
| 1778047914 | 11.67° C | 78% | 1013 hPa | 0 mm | 1.79 m/s, 46° | 0 W/m² | - |
| 1778047613 | 11.67° C | 78% | 1012.9 hPa | 0 mm | 1.79 m/s, 311° | 0 W/m² | - |
| 1778047309 | 11.67° C | 78% | 1012.9 hPa | 0 mm | 0.89 m/s, 79° | 0 W/m² | - |
| 1778047006 | 11.67° C | 78% | 1012.9 hPa | 0 mm | 0.89 m/s, 3° | 0 W/m² | - |
| 1778046703 | 11.67° C | 78% | 1013.3 hPa | 0 mm | 1.34 m/s, 4° | 0 W/m² | - |
| 1778046400 | 11.67° C | 78% | 1013.1 hPa | 0 mm | 0.89 m/s, 305° | 0 W/m² | - |
| 1778046096 | 11.67° C | 78% | 1013.2 hPa | 0 mm | 1.34 m/s, 22° | 0 W/m² | - |
| 1778045794 | 12.22° C | 78% | 1012.9 hPa | 0 mm | 0.89 m/s, 64° | 0 W/m² | - |
| 1778045492 | 12.22° C | 77% | 1012.9 hPa | 0 mm | 0.89 m/s, 328° | 0 W/m² | - |
| 1778045190 | 12.22° C | 78% | 1012.8 hPa | 0 mm | 0.45 m/s, 104° | 0 W/m² | - |
| 1778044888 | 12.22° C | 77% | 1012.7 hPa | 0 mm | 2.24 m/s, 27° | 0 W/m² | - |
| 1778044585 | 12.22° C | 77% | 1012.7 hPa | 0 mm | 0.89 m/s, 1° | 0 W/m² | - |
| 1778044281 | 12.22° C | 77% | 1012.8 hPa | 0 mm | 1.34 m/s, 4° | 0 W/m² | - |
| 1778043979 | 12.22° C | 77% | 1012.9 hPa | 0 mm | 1.34 m/s, 37° | 0 W/m² | - |
* Rain latest hour (hover to see other rain measurements)
** Current wind speed in m/s (hover to see current wind gust speed)